Location: Baumgarten
(49.0970°N, 12.7493°E)
Time: 18:46:57
(UTC+00:00)

ATLAS 2AS CENTAUR R/B - Pass Details

Date: 05 July 2020
Orbit: 930 x 1282 km, 63.7° (Epoch: 19 July)

Event Time Altitude Azimuth Distance (km) Brightness Sun altitude
Rises 20:40:57 0° 315° (NW) 4,219 7.8 -10.6°
Reaches altitude 10° 20:43:57 10° 320° (NW) 3,219 6.8 -10.8°
Maximum altitude 20:51:29 51° 36° (NE) 1,458 3.6 -11.5°
Drops below altitude 10° 20:58:25 10° 111° (ESE) 2,976 4.6 -12.1°
Enters shadow 20:58:54 - 112° (ESE) 3,136 4.7 -12.2°
